Skip Page Navigation
NASA JPL Caltech
NASA Logo - Jet Propulsion Laboratory + View the NASA Portal
+ Center for Near-Earth Object Studies
JPL Home Earth Solar System Stars & Galaxies Technology
JPL Solar System Dynamics
BODIES ORBITS EPHEMERIDES TOOLS PHYSICAL DATA DISCOVERY FAQ SITE MAP
JPL Small-Body Database Browser
Search: [ help ]  
359415 (2010 KU114)
Classification: Main-belt Asteroid          SPK-ID: 2359415
Ephemeris | Orbit Diagram | Orbital Elements | Mission Design | Physical Parameters | Discovery Circumstances | Close-Approach Data ]

[ show orbit diagram ]
Orbital Elements at Epoch 2459396.5 (2021-Jul-01.0) TDB
Reference: JPL 10 (heliocentric ecliptic J2000)
 Element Value Uncertainty (1-sigma)   Units 
e .2496320892886471 2.1782e-07  
a 2.805190351325813 8.0189e-08 au
q 2.104924823071996 5.7613e-07 au
i 22.94642645300702 1.7549e-05 deg
node 343.0221604624913 2.1172e-05 deg
peri 350.2281164460464 2.8183e-05 deg
M 116.3073945173659 4.4594e-05 deg
tp 2458842.069954152017
(2019-Dec-24.56995415)
0.00019093 TDB
period 1716.097392891663
4.70
7.3585e-05
2.015e-07
d
yr
n .2097783036622367 8.9951e-09 deg/d
Q 3.50545587957963 1.0021e-07 au
  Orbit Determination Parameters
   # obs. used (total)      178  
   data-arc span      5556 days (15.21 yr)  
   first obs. used      2003-01-29  
   last obs. used      2018-04-16  
   planetary ephem.      DE441  
   SB-pert. ephem.      SB441-N16  
   condition code      0  
   norm. resid. RMS      .55613  
   source      ORB  
   producer      Otto Matic  
   solution date      2021-Apr-14 09:28:01  

Additional Information
 Earth MOID = 1.09762 au 
 Jupiter MOID = 1.90704 au 
 T_jup = 3.164 
[ show covariance matrix ]

Ephemeris | Orbit Diagram | Orbital Elements | Mission Design | Physical Parameters | Discovery Circumstances | Close-Approach Data ]

Physical Parameter Table
Parameter Symbol Value Units Sigma Reference Notes
absolute magnitude H 16.1   n/a MPO360755  
diameter diameter 2.739 km 0.762 urn:nasa:pds:neowise_diameters_albedos::2.0[mainbelt] (http://adsabs.harvard.edu/abs/2011ApJ...741...68M)  
geometric albedo albedo 0.094   0.055 urn:nasa:pds:neowise_diameters_albedos::2.0[mainbelt] (http://adsabs.harvard.edu/abs/2011ApJ...741...68M)  

359415 (2010 KU114)          Discovered 2010-May-30 by WISE at WISE
Reference: 20130327/Numbers.arcLast Updated: 2013-03-29

[ show close-approach data ]
Ephemeris | Orbit Diagram | Orbital Elements | Mission Design | Physical Parameters | Discovery Circumstances | Close-Approach Data ]
ABOUT SSD CREDITS/AWARDS PRIVACY/COPYRIGHT GLOSSARY LINKS
FirstGov 2021-Jul-26 06:03 UT
(server date/time)  
NASA Home Page
Site Manager:   Ryan S. Park
Webmaster  Alan B. Chamberlin